Location: Unspecified
(49.8670°N, 0.0000°E)
Time: 12:08:46
(UTC+00:00)

Transit 2A - Visible Passes

Search period start: 25 June 2019 00:00
Search period end: 05 July 2019 00:00
Orbit: 593 x 966 km, 66.7° (Epoch: 24 June)

Date Brightness Start Highest point End Pass type
(mag) Time Alt. Az. Time Alt. Az. Time Alt. Az.
25 Jun 6.7 00:28:33 15° SW 00:33:54 70° NW 00:40:05 10° NE visible
25 Jun 8.3 02:13:05 10° W 02:18:12 25° NNW 02:23:07 10° NNE visible
25 Jun 7.8 22:14:18 16° SE 22:17:07 22° ESE 22:21:43 10° ENE visible
25 Jun 6.4 23:54:44 18° SW 23:59:44 89° NW 00:05:58 10° NE visible
26 Jun 8.1 01:38:20 10° W 01:43:46 29° NNW 01:49:01 10° NNE visible
26 Jun 8.1 21:40:23 12° SE 21:43:16 16° ESE 21:46:51 10° ENE visible
26 Jun 6.4 23:20:49 18° SSW 23:25:37 72° ESE 23:31:49 10° NE visible
27 Jun 7.8 01:03:38 10° WSW 01:09:24 35° NW 01:14:57 10° NNE visible
27 Jun 8.8 02:50:32 10° NW 02:54:28 17° NNW 02:58:15 10° NNE visible
27 Jun 8.3 21:07:56 10° ESE 21:09:30 11° E 21:11:04 10° E visible
27 Jun 6.6 22:46:45 17° S 22:51:34 55° ESE 22:57:36 10° NE visible
28 Jun 7.5 00:29:03 10° WSW 00:35:04 42° NW 00:40:52 10° NNE visible
28 Jun 8.8 02:15:39 10° WNW 02:19:55 19° NNW 02:24:01 10° NNE visible
28 Jun 6.9 22:12:30 14° S 22:17:34 41° ESE 22:23:20 10° NE visible
28 Jun 7.2 23:54:34 10° WSW 00:00:48 53° NW 00:06:47 10° NNE visible
29 Jun 8.6 01:40:47 10° WNW 01:45:24 21° NNW 01:49:51 10° NNE visible
29 Jun 7.3 21:38:08 10° S 21:43:36 31° ESE 21:48:58 10° NE visible
29 Jun 6.8 23:20:13 10° SW 23:26:34 67° NW 23:32:42 10° NNE visible
30 Jun 8.5 01:05:56 10° W 01:10:55 24° NNW 01:15:43 10° NNE visible
30 Jun 9.0 02:52:55 10° NW 02:56:22 15° N 02:59:40 10° NNE visible
30 Jun 7.6 21:04:53 10° SSE 21:09:42 23° ESE 21:14:28 10° ENE visible
30 Jun 6.5 22:45:59 10° SW 22:52:24 84° NW 22:58:35 10° NE visible
01 Jul 8.3 00:31:08 10° W 00:36:30 28° NNW 00:41:37 10° NNE visible
01 Jul 9.0 02:18:12 10° NW 02:21:46 16° N 02:25:12 10° NNE visible
01 Jul 6.4 22:11:54 10° SSW 22:18:16 76° ESE 22:24:26 10° NE visible
01 Jul 8.0 23:56:26 10° W 00:02:06 33° NW 00:07:32 10° NNE visible
02 Jul 9.0 01:43:24 10° NW 01:47:12 17° NNW 01:50:51 10° NNE visible
02 Jul 6.5 21:37:58 10° SSW 21:44:12 58° ESE 21:50:15 10° NE visible
02 Jul 7.7 23:21:49 10° WSW 23:27:46 40° NW 23:33:28 10° NNE visible
03 Jul 9.0 01:08:31 10° WNW 01:12:39 18° NNW 01:16:36 10° NNE visible
03 Jul 9.0 02:54:43 10° NNW 02:58:16 16° N 03:01:38 10° NE visible
03 Jul 6.8 21:04:12 10° S 21:10:11 44° ESE 21:16:00 10° NE visible
03 Jul 7.3 22:47:19 10° WSW 22:53:29 50° NW 22:59:23 10° NNE visible
04 Jul 8.9 00:33:38 10° WNW 00:38:07 20° NNW 00:42:25 10° NNE visible
04 Jul 9.1 02:20:18 10° NNW 02:23:41 15° N 02:26:55 10° NE visible
04 Jul 6.9 22:12:56 10° SW 22:19:15 63° NW 22:25:18 10° NNE visible
